GW5276 Weather Reports


time (UTC)temp
C
wind
direction
speed
KPH
gust
KPH
rain 1hr
cm
rain 24hr
cm
rain mn
cm
humidity
%
barometer
mb
20260508012716 6 248 0.0 0.0 0.00 0.03 0.03 86 1013.6
20260508012213 7 249 0.0 0.0 0.00 0.03 0.03 85 1013.6
20260508011711 7 246 0.0 0.0 0.00 0.03 0.03 84 1013.3
20260508011208 7 250 0.0 0.0 0.00 0.03 0.03 83 1013.2
20260508010704 7 251 0.0 0.0 0.00 0.03 0.03 82 1013.2
20260508010202 7 252 0.0 0.0 0.00 0.03 0.03 81 1013.2
20260508005659 8 250 0.0 0.0 0.00 0.03 0.03 81 1013.2
20260508005156 8 251 3.2 3.2 0.00 0.03 0.03 80 1013.2
20260508004652 8 234 3.2 3.2 0.00 0.03 0.03 78 1013.1
20260508004149 9 346 0.0 0.0 0.00 0.03 0.03 74 1012.8
20260508003645 9 263 0.0 0.0 0.00 0.03 0.03 74 1012.9
20260508003142 9 245 1.6 4.8 0.00 0.03 0.03 73 1012.8
20260508002638 10 258 0.0 0.0 0.00 0.03 0.03 71 1012.7
20260508002137 10 258 0.0 1.6 0.00 0.03 0.03 71 1012.4
20260508001631 10 258 0.0 0.0 0.00 0.03 0.03 67 1012.6
20260508001128 10 228 0.0 0.0 0.00 0.03 0.03 67 1012.2
20260508000623 11 189 0.0 0.0 0.00 0.03 0.03 63 1012.3
20260508000121 12 194 0.0 0.0 0.00 0.03 0.03 62 1012.0
20260507235618 12 249 0.0 0.0 0.00 0.03 0.03 54 1012.1
20260507235115 13 234 0.0 0.0 0.00 0.03 0.03 53 1012.1
20260507234611 13 236 1.6 3.2 0.00 0.03 0.03 47 1012.0
20260507234108 13 251 3.2 9.7 0.00 0.03 0.03 46 1012.2
20260507233605 14 296 0.0 1.6 0.00 0.03 0.03 47 1011.9
20260507233104 14 286 0.0 0.0 0.00 0.03 0.03 49 1012.0
20260507232600 15 286 0.0 1.6 0.00 0.03 0.03 46 1011.7
20260507232057 15 255 0.0 4.8 0.00 0.03 0.03 47 1011.7
20260507231553 15 130 0.0 0.0 0.00 0.03 0.03 41 1011.7
20260507231051 15 237 1.6 4.8 0.00 0.03 0.03 41 1011.7
20260507230547 15 323 1.6 1.6 0.00 0.03 0.03 45 1011.6
20260507230044 15 30 0.0 1.6 0.00 0.03 0.03 59 1011.4
20260507225538 15 32 0.0 1.6 0.00 0.03 0.03 42 1011.6
20260507225035 15 275 1.6 3.2 0.00 0.03 0.03 44 1011.6
20260507224531 15 319 0.0 4.8 0.00 0.03 0.03 43 1011.6
20260507224028 15 256 3.2 9.7 0.00 0.03 0.03 45 1011.6
20260507223524 15 219 1.6 9.7 0.00 0.03 0.03 39 1011.6
20260507223021 16 223 4.8 9.7 0.00 0.03 0.03 40 1011.7
20260507222518 16 20 0.0 3.2 0.00 0.03 0.03 43 1011.6
20260507222014 16 259 1.6 3.2 0.00 0.03 0.03 41 1011.7
20260507221511 16 237 8.0 12.9 0.00 0.03 0.03 41 1011.6
20260507221008 16 231 6.4 14.5 0.00 0.03 0.03 42 1011.3
20260507220505 16 206 6.4 9.7 0.00 0.03 0.03 43 1011.2
20260507220002 17 240 3.2 6.4 0.00 0.03 0.03 39 1011.1
20260507215458 17 158 4.8 6.4 0.00 0.03 0.03 39 1011.0
20260507214956 17 232 9.7 16.1 0.00 0.03 0.03 43 1011.1
20260507214453 17 213 8.0 17.7 0.00 0.03 0.03 39 1011.1
20260507213949 16 240 3.2 9.7 0.00 0.03 0.03 42 1011.0
20260507213445 16 306 0.0 4.8 0.00 0.03 0.03 40 1011.1
20260507212943 17 261 4.8 6.4 0.00 0.03 0.03 39 1010.9
20260507212438 17 256 4.8 4.8 0.00 0.03 0.03 44 1010.9
20260507211936 16 257 6.4 11.3 0.00 0.03 0.03 41 1011.0
20260507211427 17 289 4.8 9.7 0.00 0.03 0.03 43 1010.9
20260507210923 16 209 9.7 17.7 0.00 0.03 0.03 38 1010.8
20260507210420 16 228 3.2 4.8 0.00 0.03 0.03 46 1010.7
20260507205917 15 53 0.0 4.8 0.00 0.03 0.03 50 1011.0
20260507205414 15 271 6.4 9.7 0.00 0.03 0.03 48 1010.8
20260507204910 15 261 3.2 9.7 0.00 0.03 0.03 45 1010.8
20260507204406 16 223 14.5 25.7 0.00 0.03 0.03 43 1010.9
20260507203904 16 226 4.8 4.8 0.00 0.03 0.03 45 1010.8
20260507203402 16 52 3.2 6.4 0.00 0.03 0.03 44 1010.8
20260507202858 17 260 3.2 14.5 0.00 0.03 0.03 39 1011.0
20260507202354 17 253 6.4 14.5 0.00 0.03 0.03 44 1010.9
20260507201850 17 261 6.4 9.7 0.00 0.03 0.03 43 1010.9
20260507201346 17 77 6.4 20.9 0.00 0.03 0.03 40 1010.9
20260507200843 16 139 0.0 4.8 0.00 0.03 0.03 46 1011.1
20260507200339 17 231 3.2 4.8 0.00 0.03 0.03 44 1011.0
20260507195835 17 148 0.0 3.2 0.00 0.03 0.03 44 1011.0
20260507195332 16 224 0.0 6.4 0.00 0.03 0.03 46 1011.4
20260507194829 16 89 6.4 9.7 0.00 0.03 0.03 42 1011.4
20260507194325 17 246 11.3 12.9 0.00 0.03 0.03 42 1011.3
20260507193822 16 251 6.4 11.3 0.00 0.03 0.03 48 1011.6
20260507193319 16 205 6.4 12.9 0.00 0.03 0.03 41 1011.3
20260507192814 17 203 8.0 17.7 0.00 0.03 0.03 44 1011.3
20260507192312 17 253 3.2 11.3 0.00 0.03 0.03 46 1011.3
20260507191808 16 240 9.7 14.5 0.00 0.03 0.03 46 1011.6
20260507191304 16 264 9.7 14.5 0.00 0.03 0.03 45 1011.4
20260507190801 16 64 1.6 9.7 0.00 0.03 0.03 49 1011.6
20260507190300 15 220 6.4 6.4 0.00 0.03 0.03 44 1011.4
20260507185758 16 96 1.6 3.2 0.00 0.03 0.03 45 1011.4
20260507185254 15 234 1.6 6.4 0.00 0.03 0.03 43 1011.7
20260507184752 15 59 3.2 9.7 0.00 0.03 0.03 47 1011.6
20260507184250 16 215 8.0 11.3 0.00 0.03 0.03 49 1011.5
20260507183747 15 229 9.7 14.5 0.00 0.03 0.03 49 1011.6
20260507183244 17 248 4.8 6.4 0.00 0.03 0.03 47 1011.5
20260507182742 16 53 4.8 4.8 0.00 0.03 0.03 52 1011.9
20260507182241 15 302 1.6 4.8 0.00 0.03 0.03 47 1011.6
20260507181739 16 266 0.0 3.2 0.00 0.03 0.03 43 1011.5
20260507181235 16 271 16.1 20.9 0.00 0.03 0.03 42 1011.5
20260507180732 16 259 1.6 12.9 0.00 0.03 0.03 48 1011.6
20260507180229 16 257 4.8 11.3 0.00 0.03 0.03 50 1011.7
20260507175724 16 256 9.7 11.3 0.00 0.03 0.03 42 1011.5
20260507175221 16 120 1.6 11.3 0.00 0.03 0.03 46 1011.7
20260507174719 15 253 1.6 9.7 0.00 0.03 0.03 45 1012.0
20260507174217 16 88 3.2 6.4 0.00 0.03 0.03 45 1011.9
20260507173714 15 107 1.6 14.5 0.00 0.03 0.03 43 1012.0
20260507173210 16 224 8.0 9.7 0.00 0.03 0.03 49 1012.2
20260507172707 15 131 0.0 4.8 0.00 0.03 0.03 44 1012.2
20260507172204 15 217 0.0 6.4 0.00 0.03 0.03 49 1012.3
20260507171704 15 272 3.2 6.4 0.00 0.03 0.03 51 1012.5
20260507171202 16 252 4.8 9.7 0.00 0.03 0.03 49 1012.3
20260507170659 15 216 0.0 6.4 0.00 0.03 0.03 53 1012.7
20260507170156 15 261 1.6 12.9 0.00 0.03 0.03 48 1012.6
20260507165651 15 260 6.4 12.9 0.00 0.03 0.03 47 1012.7
20260507165148 15 106 1.6 6.4 0.00 0.03 0.03 46 1012.8
20260507164643 15 125 6.4 14.5 0.00 0.03 0.03 52 1012.7
20260507164141 16 314 8.0 11.3 0.00 0.03 0.03 50 1012.7
20260507163638 15 46 3.2 4.8 0.00 0.03 0.03 48 1012.9
20260507163136 15 2 0.0 1.6 0.00 0.03 0.03 46 1012.8
20260507162632 15 319 1.6 3.2 0.00 0.03 0.03 47 1013.0
20260507162128 14 237 1.6 4.8 0.00 0.03 0.03 53 1013.0
20260507161624 14 218 3.2 12.9 0.00 0.03 0.03 49 1013.1
20260507161121 15 226 6.4 11.3 0.00 0.03 0.03 49 1013.1
20260507160617 15 93 0.0 4.8 0.00 0.03 0.03 51 1013.2
20260507160114 14 251 4.8 6.4 0.00 0.03 0.03 52 1013.4
20260507155609 14 228 3.2 12.9 0.00 0.03 0.03 55 1013.5
20260507155106 14 84 1.6 6.4 0.00 0.03 0.03 52 1013.1
20260507154603 13 201 1.6 3.2 0.00 0.03 0.03 55 1013.2
20260507154100 14 196 3.2 11.3 0.00 0.03 0.03 55 1013.6
20260507153557 14 87 0.0 1.6 0.00 0.03 0.03 52 1013.2
20260507153054 13 211 6.4 9.7 0.00 0.03 0.03 58 1013.2
20260507152550 13 205 3.2 4.8 0.00 0.03 0.03 55 1013.3
20260507152046 13 206 4.8 4.8 0.00 0.03 0.03 53 1013.5
20260507151542 12 197 0.0 3.2 0.00 0.03 0.03 58 1013.4
20260507151039 12 191 1.6 9.7 0.00 0.03 0.03 58 1013.5
20260507150536 12 207 4.8 6.4 0.00 0.03 0.03 59 1013.5
20260507150033 13 107 1.6 4.8 0.00 0.03 0.03 54 1013.6
20260507145527 12 202 3.2 3.2 0.00 0.03 0.03 61 1013.5
20260507145026 12 202 3.2 6.4 0.00 0.03 0.03 64 1013.6
20260507144522 13 204 3.2 4.8 0.00 0.03 0.03 59 1014.0
20260507144020 14 171 3.2 4.8 0.00 0.03 0.03 55 1013.6
20260507143517 13 207 3.2 4.8 0.00 0.03 0.03 59 1013.7
20260507143014 12 92 0.0 4.8 0.00 0.03 0.03 62 1014.0
20260507142509 13 84 1.6 3.2 0.00 0.03 0.03 61 1014.1
20260507142007 12 204 1.6 4.8 0.00 0.03 0.03 57 1014.2
20260507141502 12 196 1.6 1.6 0.00 0.03 0.03 64 1014.2
20260507140959 12 97 1.6 4.8 0.00 0.03 0.03 64 1014.2
20260507140456 12 190 3.2 4.8 0.00 0.03 0.03 68 1014.1
20260507135953 13 187 1.6 3.2 0.00 0.03 0.03 69 1014.5
20260507135450 13 150 0.0 1.6 0.00 0.03 0.03 64 1014.3
20260507134948 12 192 4.8 6.4 0.00 0.03 0.03 75 1014.5
20260507134444 12 137 0.0 1.6 0.00 0.03 0.03 71 1014.7
20260507133940 12 182 1.6 4.8 0.00 0.03 0.03 76 1014.6
20260507133436 12 192 4.8 4.8 0.00 0.03 0.03 80 1014.6
20260507132930 11 193 3.2 4.8 0.00 0.03 0.03 83 1014.6
20260507132425 12 128 0.0 0.0 0.00 0.03 0.03 84 1014.8
20260507131921 10 131 0.0 0.0 0.00 0.03 0.03 87 1014.5
20260507131419 10 181 0.0 1.6 0.00 0.03 0.03 88 1014.7
20260507130916 10 188 3.2 4.8 0.00 0.03 0.03 87 1014.7
20260507130413 10 176 1.6 3.2 0.00 0.03 0.03 89 1014.8
20260507125912 10 163 0.0 0.0 0.00 0.03 0.03 88 1014.6
20260507125409 10 163 0.0 0.0 0.00 0.03 0.03 88 1014.7
20260507124906 10 163 0.0 0.0 0.00 0.03 0.03 89 1014.8
20260507124402 9 163 0.0 0.0 0.00 0.03 0.03 89 1014.7
20260507123901 9 163 0.0 0.0 0.00 0.03 0.03 89 1014.8
20260507123357 9 163 0.0 0.0 0.00 0.03 0.03 91 1014.9
20260507122854 9 145 0.0 0.0 0.00 0.03 0.03 93 1015.0
20260507122349 8 145 0.0 0.0 0.00 0.03 0.03 94 1014.9
20260507121846 9 126 0.0 0.0 0.00 0.03 0.03 96 1015.2
20260507121341 9 126 0.0 0.0 0.00 0.03 0.03 96 1014.9
20260507120838 8 125 0.0 0.0 0.00 0.03 0.03 97 1014.7
20260507120335 8 125 0.0 0.0 0.00 0.03 0.03 97 1014.7
20260507115831 8 125 0.0 0.0 0.00 0.03 0.03 97 1014.7
20260507115326 8 125 0.0 0.0 0.00 0.03 0.03 97 1014.6
20260507114822 8 126 0.0 0.0 0.00 0.03 0.03 97 1014.6
20260507114320 8 126 0.0 0.0 0.00 0.03 0.03 97 1014.4
20260507113817 8 125 0.0 0.0 0.00 0.03 0.03 97 1014.4
20260507113314 8 125 0.0 0.0 0.00 0.03 0.03 98 1014.4
20260507112812 8 125 0.0 0.0 0.00 0.03 0.03 98 1014.3
20260507112308 8 166 0.0 0.0 0.00 0.03 0.03 98 1014.3
20260507111807 8 173 0.0 0.0 0.00 0.03 0.03 98 1014.3
20260507111303 8 173 0.0 0.0 0.00 0.03 0.03 98 1014.2
20260507110759 8 173 0.0 0.0 0.00 0.03 0.03 98 1014.2
20260507110255 8 173 0.0 0.0 0.00 0.03 0.03 98 1014.2
20260507105752 8 173 0.0 0.0 0.00 0.03 0.03 98 1014.3
20260507105248 8 173 0.0 0.0 0.00 0.03 0.03 98 1013.9
20260507104746 8 173 0.0 0.0 0.00 0.03 0.03 98 1014.0
20260507104242 8 173 0.0 0.0 0.00 0.03 0.03 98 1013.9
20260507103738 8 173 0.0 0.0 0.00 0.03 0.03 98 1014.0
20260507103234 8 173 0.0 0.0 0.00 0.03 0.03 97 1013.7
20260507102730 8 173 0.0 0.0 0.00 0.03 0.03 97 1013.7
20260507102227 8 173 0.0 0.0 0.00 0.03 0.03 97 1013.9
20260507101723 8 173 0.0 0.0 0.00 0.03 0.03 97 1014.0
20260507101219 8 173 0.0 0.0 0.00 0.03 0.03 97 1013.8
20260507100716 8 173 0.0 0.0 0.00 0.03 0.03 97 1013.7
20260507100215 8 173 0.0 0.0 0.00 0.03 0.03 97 1013.7
20260507095712 8 173 0.0 0.0 0.00 0.03 0.03 97 1013.9
20260507095209 8 173 0.0 0.0 0.00 0.03 0.03 97 1013.7
20260507094706 8 173 0.0 0.0 0.00 0.03 0.03 97 1013.7
20260507094203 8 173 0.0 0.0 0.00 0.03 0.03 97 1013.5
20260507093700 8 173 0.0 0.0 0.00 0.03 0.03 97 1013.6
20260507093158 8 173 0.0 0.0 0.00 0.03 0.03 97 1013.7
20260507092655 8 173 0.0 0.0 0.00 0.03 0.03 97 1013.5
20260507092151 8 173 0.0 0.0 0.00 0.03 0.03 97 1013.4
20260507091647 8 173 0.0 0.0 0.00 0.03 0.03 97 1013.4
20260507091143 8 173 0.0 0.0 0.00 0.03 0.03 98 1013.4
20260507090639 8 173 0.0 0.0 0.00 0.03 0.03 98 1013.5
20260507090137 8 173 0.0 0.0 0.00 0.03 0.03 98 1013.6
20260507085633 8 173 0.0 0.0 0.00 0.03 0.03 98 1013.6
20260507085130 9 134 0.0 0.0 0.00 0.03 0.03 98 1013.4
20260507084627 9 124 0.0 0.0 0.00 0.03 0.03 98 1013.4
20260507084124 9 124 0.0 0.0 0.00 0.03 0.03 98 1013.4
20260507083620 9 124 0.0 0.0 0.00 0.03 0.03 98 1013.5
20260507083117 9 124 0.0 0.0 0.00 0.03 0.03 98 1013.4
20260507082613 10 124 0.0 0.0 0.00 0.03 0.03 98 1013.6
20260507082110 10 124 0.0 0.0 0.00 0.03 0.03 98 1013.5
20260507081606 10 124 0.0 0.0 0.00 0.03 0.03 98 1013.5
20260507081103 10 124 0.0 0.0 0.00 0.03 0.03 98 1013.4
20260507080559 10 124 0.0 0.0 0.00 0.03 0.03 98 1013.5
20260507080056 10 124 0.0 0.0 0.00 0.03 0.03 98 1013.6
20260507075550 10 125 0.0 0.0 0.00 0.03 0.03 98 1013.5
20260507075047 10 125 0.0 0.0 0.00 0.03 0.03 98 1013.5
20260507074544 10 104 0.0 0.0 0.00 0.03 0.03 98 1013.6
20260507074043 10 104 0.0 0.0 0.00 0.03 0.03 98 1013.3
20260507073538 10 104 0.0 0.0 0.00 0.03 0.03 98 1013.4
20260507073035 10 104 0.0 0.0 0.00 0.03 0.03 98 1013.6
20260507072533 10 103 0.0 0.0 0.00 0.03 0.03 98 1013.3
20260507072030 10 103 0.0 0.0 0.00 0.03 0.03 98 1013.3
20260507071527 10 103 0.0 0.0 0.00 0.03 0.03 98 1013.5
20260507071024 10 103 0.0 0.0 0.00 0.03 0.03 98 1013.3
20260507070521 10 103 0.0 0.0 0.00 0.03 0.03 98 1013.5
20260507070018 10 103 0.0 0.0 0.00 0.03 0.03 98 1013.5
20260507065514 10 103 0.0 0.0 0.00 0.03 0.03 98 1013.3
20260507065011 10 103 0.0 0.0 0.00 0.03 0.03 98 1013.3
20260507064509 10 103 0.0 0.0 0.00 0.03 0.03 98 1013.2
20260507064007 10 103 0.0 0.0 0.00 0.03 0.03 98 1013.2
20260507063504 10 102 0.0 0.0 0.00 0.03 0.03 98 1013.3
20260507063001 10 102 0.0 0.0 0.00 0.03 0.03 98 1013.4
20260507062458 10 102 0.0 0.0 0.00 0.03 0.03 98 1013.3
20260507061955 10 101 0.0 0.0 0.00 0.03 0.03 98 1013.5
20260507061453 10 227 0.0 0.0 0.00 0.03 0.03 98 1013.4
20260507060951 10 229 0.0 0.0 0.00 0.03 0.03 98 1013.4
20260507060448 10 248 0.0 0.0 0.00 0.03 0.03 98 1013.5
20260507055944 10 245 0.0 0.0 0.00 0.03 0.03 98 1013.5
20260507055440 10 245 0.0 0.0 0.00 0.03 0.03 98 1013.6
20260507054937 10 245 0.0 0.0 0.00 0.03 0.03 98 1013.4
20260507054433 10 245 0.0 0.0 0.00 0.03 0.03 98 1013.7
20260507053930 10 245 0.0 0.0 0.00 0.03 0.03 98 1013.6
20260507053428 10 245 0.0 0.0 0.00 0.03 0.03 98 1013.8
20260507052926 10 245 0.0 0.0 0.00 0.03 0.03 98 1013.9
20260507052423 10 245 0.0 0.0 0.00 0.03 0.03 98 1013.9
20260507051920 10 245 0.0 0.0 0.18 0.03 0.03 98 1013.8
20260507051418 10 245 0.0 0.0 0.18 0.03 0.03 98 1013.8
20260507050915 10 245 0.0 0.0 0.00 0.00 0.00 98 1014.0
20260507050411 10 245 0.0 0.0 0.00 0.00 0.00 98 1013.9
20260507045908 10 245 0.0 0.0 0.00 0.00 0.00 98 1014.1
20260507045404 10 245 0.0 0.0 0.00 0.00 0.00 98 1013.9
20260507044857 10 245 0.0 0.0 0.00 0.00 0.00 98 1013.8
20260507044353 10 245 0.0 0.0 0.00 0.00 0.00 98 1013.9
20260507043849 10 244 0.0 0.0 0.00 0.00 0.00 98 1014.1
20260507043345 10 249 0.0 0.0 0.00 0.00 0.00 98 1013.8
20260507042841 10 249 0.0 0.0 0.00 0.00 0.00 98 1013.7
20260507042337 10 249 0.0 0.0 0.00 0.00 0.00 98 1013.7
20260507041829 10 249 0.0 0.0 0.00 0.00 0.00 98 1013.8
20260507041326 10 249 0.0 0.0 0.00 0.00 0.00 98 1013.9
20260507040823 10 249 0.0 0.0 0.00 0.00 0.00 98 1013.7
20260507040319 10 249 0.0 0.0 0.00 1.37 1.37 98 1013.6
20260507035815 10 250 0.0 0.0 0.00 1.37 1.37 98 1013.7
20260507035310 10 251 0.0 0.0 0.00 1.37 1.37 98 1013.6
20260507034809 10 250 0.0 0.0 0.00 1.37 1.37 98 1013.6
20260507034305 10 250 0.0 0.0 0.00 1.37 1.37 98 1013.6
20260507033803 10 251 0.0 0.0 0.00 1.37 1.37 98 1013.6
20260507033301 10 251 0.0 0.0 0.00 1.37 1.37 98 1013.8
20260507032757 10 251 0.0 0.0 0.00 1.37 1.37 98 1013.7
20260507032253 10 251 0.0 0.0 0.00 1.37 1.37 98 1013.7
20260507031750 10 251 0.0 0.0 0.00 1.37 1.37 97 1013.8
20260507031247 10 251 0.0 0.0 0.00 1.37 1.37 97 1014.1
20260507030744 10 251 0.0 0.0 0.00 1.37 1.37 97 1014.2
20260507030241 10 251 0.0 0.0 0.00 1.37 1.37 97 1014.6
20260507025738 10 251 0.0 0.0 0.00 1.37 1.37 97 1014.3
20260507025235 10 251 0.0 0.0 0.00 1.37 1.37 97 1013.9
20260507024734 10 255 0.0 0.0 0.00 1.37 1.37 97 1013.9
20260507024231 10 310 0.0 0.0 0.18 1.37 1.37 97 1013.8
20260507023726 10 310 0.0 0.0 0.18 1.37 1.37 97 1013.6
20260507023223 10 310 0.0 1.6 0.00 1.35 1.35 97 1013.3
20260507022720 10 211 0.0 0.0 0.00 1.35 1.35 97 1013.5
20260507022216 10 211 0.0 0.0 0.00 1.35 1.35 97 1013.6
20260507021713 10 204 0.0 0.0 0.00 1.35 1.35 97 1014.1
20260507021208 10 203 0.0 0.0 0.00 1.35 1.35 97 1014.0
20260507020707 10 203 0.0 0.0 0.00 1.35 1.35 97 1013.5
20260507020202 10 203 0.0 0.0 0.00 1.35 1.35 97 1013.7
20260507015700 11 203 0.0 0.0 0.00 1.35 1.35 97 1013.5
20260507015157 11 203 0.0 0.0 0.00 1.35 1.35 97 1013.2
20260507014653 11 203 0.0 0.0 0.00 1.35 1.35 97 1013.3
20260507014149 11 203 0.0 0.0 0.00 1.35 1.35 97 1013.2
20260507013646 11 217 0.0 0.0 0.00 1.35 1.35 97 1012.9